Precipitable_Water
0.30 0.31 0.31 0.32 0.32 0.35 0.34 0.34 0.28 0.30 0.30 0.33 0.35 0.31 0.33 0.36 0.38 0.40 0.44 0.49 0.52 0.53 0.56 0.59 0.57 0.60 0.62 0.61 0.62 0.58 0.51 0.48 0.47 0.44 0.41 0.38 0.32 0.27 0.26 0.25 0.23 0.23 0.22 0.21
0.28 0.32 0.32 0.29 0.30 0.30 0.29 0.29 0.29 0.30 0.29 0.32 0.29 0.32 0.34 0.37 0.38 0.38 0.40 0.42 0.46 0.49 0.49 0.50 0.52 0.55 0.59 0.59 0.58 0.58 0.49 0.45 0.43 0.39 0.36 0.32 0.29 0.27 0.25 0.24 0.23 0.23 0.22 0.21
0.23 0.29 0.29 0.25 0.25 0.27 0.27 0.28 0.27 0.24 0.24 0.27 0.26 0.29 0.31 0.33 0.37 0.38 0.40 0.41 0.43 0.45 0.47 0.48 0.50 0.55 0.57 0.57 0.58 0.50 0.45 0.41 0.37 0.36 0.33 0.31 0.30 0.27 0.24 0.23 0.23 0.22 0.22 0.22
0.23 0.27 0.17 0.23 0.29 0.28 0.27 0.28 0.29 0.28 0.25 0.25 0.24 0.29 0.36 0.39 0.39 0.40 0.45 0.44 0.45 0.46 0.49 0.51 0.55 0.57 0.58 0.57 0.51 0.45 0.40 0.37 0.37 0.35 0.32 0.31 0.29 0.27 0.25 0.23 0.22 0.21 0.22 0.23
0.18 0.18 0.21 0.19 0.20 0.22 0.23 0.21 0.25 0.24 0.24 0.29 0.31 0.32 0.32 0.40 0.41 0.39 0.42 0.46 0.47 0.50 0.52 0.54 0.55 0.55 0.58 0.49 0.45 0.40 0.40 0.38 0.37 0.35 0.33 0.32 0.30 0.27 0.25 0.23 0.23 0.23 0.22 0.21
0.22 0.17 0.14 0.14 0.21 0.23 0.26 0.14 0.22 0.25 0.26 0.28 0.32 0.24 0.28 0.39 0.41 0.42 0.46 0.49 0.49 0.52 0.53 0.52 0.53 0.58 0.48 0.50 0.46 0.42 0.39 0.38 0.37 0.35 0.34 0.33 0.28 0.26 0.25 0.24 0.23 0.21 0.20 0.20
0.16 0.16 0.17 0.19 0.23 0.25 0.14 0.12 0.28 0.33 0.35 0.35 0.31 0.33 0.38 0.43 0.42 0.43 0.45 0.47 0.50 0.51 0.51 0.51 0.52 0.48 0.47 0.46 0.42 0.40 0.39 0.37 0.36 0.36 0.33 0.30 0.29 0.29 0.28 0.23 0.21 0.19 0.19 0.18
0.13 0.12 0.10 0.25 0.25 0.20 0.25 0.31 0.33 0.35 0.37 0.36 0.38 0.38 0.38 0.40 0.42 0.43 0.44 0.45 0.47 0.48 0.48 0.49 0.49 0.47 0.46 0.43 0.41 0.40 0.38 0.39 0.37 0.35 0.32 0.30 0.30 0.26 0.24 0.21 0.18 0.17 0.15 0.17
0.12 0.11 0.18 0.25 0.28 0.31 0.34 0.32 0.34 0.38 0.40 0.40 0.39 0.40 0.42 0.44 0.43 0.43 0.44 0.45 0.46 0.46 0.45 0.47 0.49 0.49 0.44 0.41 0.41 0.39 0.40 0.38 0.35 0.32 0.31 0.32 0.27 0.25 0.23 0.19 0.17 0.17 0.17 0.16
0.14 0.16 0.17 0.20 0.26 0.31 0.34 0.35 0.40 0.43 0.44 0.46 0.44 0.45 0.44 0.43 0.42 0.41 0.42 0.43 0.44 0.43 0.43 0.45 0.46 0.44 0.41 0.41 0.42 0.42 0.39 0.35 0.33 0.32 0.31 0.28 0.25 0.26 0.23 0.18 0.16 0.15 0.15 0.18
0.13 0.14 0.15 0.16 0.21 0.25 0.31 0.41 0.47 0.49 0.47 0.47 0.45 0.40 0.40 0.39 0.41 0.43 0.44 0.44 0.44 0.43 0.43 0.43 0.43 0.42 0.42 0.42 0.43 0.39 0.36 0.32 0.31 0.31 0.26 0.23 0.23 0.23 0.19 0.17 0.15 0.15 0.18 0.20
0.08 0.13 0.11 0.11 0.18 0.26 0.31 0.35 0.41 0.43 0.40 0.43 0.44 0.40 0.40 0.40 0.43 0.44 0.43 0.44 0.42 0.43 0.44 0.44 0.43 0.42 0.42 0.42 0.40 0.36 0.32 0.31 0.29 0.25 0.19 0.16 0.18 0.17 0.18 0.17 0.18 0.19 0.21 0.22
0.13 0.15 0.15 0.17 0.23 0.30 0.35 0.40 0.42 0.39 0.40 0.41 0.44 0.43 0.41 0.40 0.43 0.45 0.44 0.43 0.43 0.43 0.43 0.43 0.42 0.41 0.41 0.39 0.36 0.33 0.31 0.30 0.28 0.22 0.18 0.18 0.19 0.19 0.17 0.20 0.20 0.22 0.24 0.24
0.19 0.19 0.17 0.23 0.23 0.29 0.36 0.40 0.43 0.42 0.44 0.44 0.42 0.42 0.42 0.42 0.44 0.44 0.42 0.43 0.44 0.43 0.43 0.42 0.41 0.39 0.40 0.38 0.35 0.32 0.31 0.28 0.25 0.22 0.20 0.20 0.20 0.19 0.19 0.18 0.17 0.21 0.24 0.23
0.20 0.23 0.23 0.25 0.24 0.24 0.32 0.39 0.39 0.42 0.43 0.42 0.42 0.39 0.41 0.42 0.42 0.42 0.44 0.44 0.44 0.42 0.41 0.41 0.39 0.39 0.39 0.37 0.32 0.32 0.29 0.27 0.25 0.22 0.22 0.22 0.22 0.20 0.20 0.19 0.21 0.21 0.21 0.21
0.23 0.24 0.25 0.25 0.24 0.28 0.32 0.38 0.41 0.41 0.41 0.40 0.38 0.39 0.42 0.43 0.42 0.42 0.44 0.44 0.41 0.38 0.39 0.40 0.39 0.39 0.39 0.37 0.34 0.32 0.29 0.27 0.25 0.24 0.23 0.23 0.23 0.22 0.20 0.24 0.22 0.21 0.20 0.19
0.25 0.22 0.23 0.25 0.27 0.31 0.38 0.43 0.43 0.42 0.41 0.40 0.39 0.42 0.44 0.43 0.43 0.42 0.42 0.43 0.42 0.40 0.40 0.39 0.38 0.39 0.38 0.38 0.35 0.32 0.28 0.26 0.25 0.24 0.24 0.25 0.26 0.24 0.23 0.24 0.23 0.21 0.20 0.19
0.30 0.26 0.28 0.30 0.32 0.38 0.41 0.43 0.42 0.42 0.41 0.40 0.41 0.42 0.42 0.41 0.40 0.40 0.40 0.41 0.40 0.39 0.38 0.38 0.37 0.36 0.35 0.35 0.34 0.32 0.29 0.28 0.27 0.28 0.25 0.24 0.23 0.22 0.26 0.25 0.22 0.20 0.19 0.18
0.30 0.27 0.33 0.39 0.41 0.41 0.42 0.43 0.43 0.44 0.41 0.39 0.39 0.38 0.37 0.36 0.36 0.36 0.38 0.37 0.36 0.35 0.35 0.38 0.38 0.37 0.36 0.35 0.34 0.33 0.30 0.27 0.25 0.27 0.24 0.23 0.22 0.25 0.25 0.22 0.21 0.20 0.18 0.17
0.32 0.32 0.35 0.38 0.41 0.43 0.44 0.44 0.42 0.38 0.37 0.37 0.36 0.34 0.33 0.34 0.35 0.35 0.35 0.34 0.34 0.35 0.37 0.37 0.36 0.34 0.31 0.29 0.28 0.26 0.25 0.24 0.25 0.24 0.22 0.21 0.25 0.25 0.23 0.22 0.20 0.18 0.17 0.16
0.39 0.40 0.40 0.41 0.43 0.43 0.39 0.37 0.34 0.34 0.34 0.33 0.32 0.31 0.31 0.32 0.33 0.33 0.32 0.30 0.33 0.35 0.35 0.34 0.33 0.32 0.31 0.30 0.28 0.26 0.27 0.26 0.24 0.22 0.22 0.25 0.25 0.23 0.22 0.20 0.18 0.17 0.16 0.15
0.36 0.36 0.39 0.39 0.38 0.36 0.34 0.33 0.33 0.32 0.31 0.31 0.32 0.32 0.32 0.31 0.32 0.33 0.34 0.32 0.34 0.34 0.34 0.33 0.33 0.32 0.31 0.29 0.29 0.29 0.27 0.25 0.24 0.24 0.26 0.26 0.24 0.21 0.19 0.18 0.17 0.16 0.16 0.15
0.32 0.32 0.32 0.32 0.30 0.29 0.30 0.30 0.31 0.32 0.32 0.32 0.32 0.32 0.32 0.32 0.32 0.31 0.29 0.34 0.34 0.34 0.34 0.33 0.33 0.32 0.30 0.30 0.30 0.28 0.26 0.25 0.25 0.26 0.26 0.25 0.21 0.19 0.18 0.17 0.17 0.17 0.16 0.15
0.27 0.27 0.28 0.29 0.29 0.28 0.27 0.30 0.32 0.32 0.33 0.33 0.33 0.33 0.33 0.31 0.32 0.34 0.34 0.34 0.34 0.33 0.33 0.33 0.32 0.31 0.30 0.29 0.29 0.27 0.26 0.25 0.27 0.27 0.26 0.22 0.21 0.19 0.18 0.18 0.17 0.16 0.16 0.15
0.27 0.27 0.27 0.27 0.27 0.28 0.30 0.31 0.31 0.31 0.31 0.32 0.32 0.33 0.34 0.34 0.32 0.33 0.33 0.33 0.33 0.32 0.32 0.32 0.31 0.31 0.30 0.29 0.27 0.26 0.26 0.26 0.27 0.26 0.22 0.21 0.20 0.19 0.18 0.18 0.17 0.16 0.16 0.15
0.25 0.25 0.27 0.29 0.29 0.30 0.30 0.31 0.29 0.30 0.30 0.30 0.31 0.32 0.33 0.33 0.32 0.32 0.31 0.31 0.31 0.30 0.30 0.30 0.30 0.29 0.28 0.27 0.26 0.26 0.26 0.26 0.25 0.22 0.21 0.22 0.20 0.19 0.18 0.18 0.17 0.16 0.15 0.14
0.27 0.28 0.29 0.29 0.30 0.31 0.31 0.30 0.29 0.29 0.31 0.31 0.30 0.31 0.31 0.31 0.30 0.30 0.30 0.29 0.29 0.29 0.29 0.29 0.29 0.28 0.27 0.27 0.27 0.26 0.26 0.25 0.23 0.23 0.22 0.20 0.18 0.18 0.18 0.17 0.16 0.16 0.15 0.14
Wind_Speed
23 22 21 23 25 28 29 28 25 28 27 30 32 29 29 27 27 26 26 26 25 26 26 26 26 25 24 24 23 23 22 22 23 24 24 23 22 21 21 20 20 19 19 18
32 33 31 27 30 29 29 30 33 34 36 35 34 30 28 26 24 24 24 24 25 25 25 25 24 24 23 23 23 22 23 23 23 23 23 21 20 20 19 19 18 18 17 17
28 24 24 26 31 31 32 31 29 27 28 26 26 26 28 27 26 26 26 25 24 23 24 24 24 23 23 22 22 22 23 22 22 21 20 19 19 18 18 17 16 15 15 15
22 22 25 26 25 23 24 25 24 24 25 27 28 26 25 24 24 25 24 23 23 23 23 23 22 22 21 21 22 23 22 21 19 19 18 18 17 17 16 15 14 14 15 15
22 24 26 29 26 23 24 29 28 29 28 24 22 22 23 23 23 23 23 22 22 22 21 20 20 21 21 21 21 20 19 19 19 19 18 17 16 14 14 13 13 14 14 14
21 23 24 25 23 23 21 29 25 24 23 22 20 20 20 20 22 22 22 21 20 20 20 20 20 19 20 19 18 18 19 19 19 18 17 15 14 13 12 12 12 12 12 11
22 22 26 26 26 26 24 25 22 20 19 18 19 20 20 20 21 21 21 20 20 19 19 19 19 19 18 18 19 19 19 18 17 16 14 13 13 12 11 10 9 9 9 9
17 18 24 20 19 21 21 22 21 22 22 22 21 22 22 22 22 21 20 21 21 20 19 18 18 18 18 19 19 19 18 17 15 14 13 12 11 10 9 8 7 7 7 7
14 15 17 17 19 22 23 25 25 25 25 25 25 24 22 22 21 22 21 21 20 19 18 18 18 18 18 19 18 17 16 15 13 12 12 11 10 9 8 7 6 6 6 7
12 14 17 20 20 21 23 25 26 25 24 23 21 19 19 18 19 19 19 19 18 18 19 19 19 19 18 18 17 16 15 14 13 12 11 10 10 10 9 8 6 6 6 7
18 18 19 20 19 21 20 20 21 20 18 17 16 17 17 18 18 18 18 17 18 18 19 19 19 19 18 17 16 15 14 13 13 12 11 10 10 10 9 8 7 6 6 8
21 20 21 21 21 21 18 17 17 17 16 16 16 17 18 19 19 19 18 18 19 18 19 19 19 18 17 17 16 15 14 14 13 12 11 10 9 9 8 8 7 7 7 9
28 26 26 27 26 24 22 20 18 17 17 17 18 18 19 19 19 18 18 18 18 18 18 17 17 16 16 16 16 15 15 14 14 13 13 12 11 10 10 9 9 8 9 10
30 28 30 29 29 25 24 22 20 18 17 17 17 19 19 17 16 16 17 17 16 16 16 16 15 15 15 15 16 16 15 15 15 14 14 13 13 12 12 11 11 12 12 11
33 34 35 33 30 28 24 23 21 20 18 18 18 19 17 16 17 17 16 16 16 16 15 15 15 14 14 15 16 16 15 15 15 15 15 15 14 14 14 13 14 15 14 13
31 29 27 26 24 22 21 21 20 20 20 19 19 17 17 16 15 14 15 15 15 15 15 15 15 14 14 15 16 16 16 16 16 16 16 16 16 16 16 17 17 17 16 16
25 23 21 19 18 18 19 18 18 17 18 18 17 16 15 13 13 13 13 14 14 14 15 15 15 15 15 15 17 17 16 16 16 16 16 17 17 18 18 18 18 18 17 17
20 19 17 15 15 15 15 16 16 16 16 16 15 13 13 12 12 12 12 13 13 13 14 14 14 14 14 15 16 17 17 17 17 17 17 17 17 18 18 18 18 17 17 17
12 14 13 13 13 13 13 14 14 14 13 12 11 12 12 12 12 12 12 13 13 14 14 14 15 15 15 16 16 16 17 17 17 17 17 17 17 17 18 18 17 17 17 17
10 11 12 12 12 12 12 12 12 11 10 10 10 10 10 10 11 11 12 13 14 14 14 15 15 14 14 15 15 16 16 16 17 17 17 17 17 18 18 18 18 18 18 18
8 9 10 11 10 9 9 9 9 9 9 8 7 7 6 6 6 7 8 9 11 12 13 13 14 14 14 14 15 16 16 16 17 17 17 18 18 18 18 17 18 18 19 19
7 7 8 8 8 8 8 8 7 7 7 6 6 5 5 5 5 5 6 6 7 9 10 11 12 13 14 14 15 15 15 16 16 17 17 18 18 17 18 18 19 19 20 20
6 7 7 7 8 7 7 7 7 6 6 6 6 6 6 5 6 6 6 6 7 8 9 10 11 12 12 13 14 15 15 16 16 17 17 17 18 18 19 19 20 20 20 20
6 6 6 7 7 7 7 7 6 6 6 6 6 7 6 6 7 7 7 8 8 9 10 10 11 12 13 14 14 15 16 16 17 17 17 18 18 19 19 20 20 20 21 22
7 6 7 8 8 7 7 7 7 6 7 7 7 8 8 8 8 9 10 10 10 11 11 11 12 13 14 15 15 16 17 17 17 18 18 19 19 20 20 21 21 22 22 23
8 9 9 9 8 8 8 8 8 8 8 8 9 9 9 10 10 10 10 10 11 11 12 12 13 13 14 14 15 16 16 17 17 18 18 19 19 20 21 21 22 22 22 22
11 11 11 10 10 10 10 9 9 9 10 10 10 11 11 11 10 10 11 11 11 12 13 13 14 14 15 15 16 16 16 17 17 18 18 19 19 19 20 20 21 22 23 23
Wind_Direction
255 259 262 256 251 254 257 259 261 267 271 272 269 269 269 266 271 268 267 267 264 263 264 261 264 264 265 269 269 275 279 282 282 283 287 288 289 292 292 293 295 297 298 300
263 264 259 259 259 259 260 260 261 262 267 267 270 271 269 271 268 269 270 268 267 266 264 261 261 262 262 266 272 268 282 283 282 283 284 285 286 289 291 292 294 296 298 300
257 258 260 258 260 259 264 264 259 257 263 274 274 270 270 270 271 272 272 271 268 264 262 262 259 259 260 265 268 273 281 281 280 280 280 282 286 288 291 291 292 295 298 300
257 257 257 259 262 264 265 264 262 265 271 275 274 273 272 272 273 274 272 269 267 266 265 261 258 257 258 265 268 275 277 278 277 278 279 281 284 287 288 289 291 294 298 300
258 259 268 267 267 262 262 265 266 269 275 274 275 273 271 268 272 274 275 272 270 267 262 259 256 256 257 265 270 272 274 275 275 275 276 277 279 281 285 288 292 295 296 300
258 261 262 267 264 266 268 271 269 268 269 269 269 273 272 269 273 275 275 271 268 263 261 258 255 252 260 261 266 270 274 273 274 273 273 271 272 276 283 289 294 297 301 305
262 265 268 267 267 272 266 273 276 267 265 263 266 269 274 274 274 273 272 269 267 262 259 256 252 253 258 259 267 271 272 271 270 268 267 268 267 269 277 286 294 301 304 309
271 270 273 265 267 258 263 267 270 268 268 268 271 274 275 273 270 269 267 268 264 260 257 253 251 254 260 264 266 268 266 266 263 261 261 262 261 260 266 279 291 298 308 314
259 272 276 269 265 267 268 268 270 272 271 272 272 272 271 272 269 267 267 267 261 253 250 249 252 258 263 263 262 261 261 257 255 252 254 252 252 244 255 270 280 291 301 316
278 283 280 278 277 277 275 271 271 269 268 269 267 264 269 269 267 267 266 261 257 251 247 250 254 261 264 258 257 256 251 247 245 244 244 243 242 243 249 254 265 281 299 314
276 280 289 288 281 279 279 276 272 263 263 258 259 264 268 269 269 267 261 258 253 251 251 252 255 260 260 255 250 246 241 239 237 238 237 237 240 242 243 247 256 268 292 304
271 270 277 283 287 285 274 273 270 253 258 259 261 267 273 275 269 264 259 256 253 253 252 252 255 256 253 247 241 237 233 233 232 232 230 229 233 235 234 238 250 266 288 302
271 272 272 279 283 280 269 266 264 258 258 258 266 273 277 279 268 259 256 252 252 250 250 250 250 250 245 239 235 232 231 231 230 228 229 230 235 236 238 245 254 269 286 296
272 271 273 276 277 270 263 259 257 259 256 259 268 276 279 273 261 254 251 251 247 246 247 244 244 243 239 234 231 230 230 230 228 228 231 234 237 241 245 248 259 275 284 285
276 270 270 273 270 258 254 249 250 251 255 264 274 278 273 266 260 255 251 249 245 243 241 239 239 242 237 233 230 229 230 230 230 232 235 237 241 245 249 253 266 276 278 280
275 271 269 266 258 245 240 241 246 250 257 267 273 273 268 265 257 251 247 244 239 239 237 236 238 240 238 234 232 231 232 232 233 237 239 241 244 248 253 262 269 274 275 275
267 262 259 255 239 232 232 238 243 250 258 265 268 267 261 256 251 247 243 238 237 236 235 236 237 240 241 238 234 234 234 235 237 239 242 246 250 253 258 264 268 271 272 274
256 249 244 238 225 225 233 240 247 254 259 262 262 255 250 248 247 244 241 238 236 237 238 238 237 240 241 240 236 236 237 238 240 244 247 249 253 256 261 264 267 268 271 274
241 228 225 221 223 230 235 243 249 254 253 251 249 250 251 252 249 245 240 238 238 239 241 240 242 246 246 241 239 238 238 240 243 248 250 252 255 260 263 263 265 268 270 274
234 226 224 227 229 234 239 247 248 241 245 248 251 249 250 251 246 243 242 243 244 247 241 242 245 245 242 239 239 239 241 243 246 250 252 255 259 263 263 264 266 268 271 275
221 216 215 218 225 232 239 232 227 232 235 235 229 228 230 236 233 233 239 246 247 246 242 241 242 243 242 241 243 243 246 248 250 252 255 260 262 261 262 264 266 270 273 277
205 205 209 217 224 226 223 219 216 211 212 212 213 214 215 224 228 235 245 250 245 242 241 241 244 245 246 245 247 247 249 251 253 256 260 263 261 261 263 266 270 273 275 278
211 212 215 218 206 201 197 196 199 202 206 211 212 215 221 228 230 234 247 250 248 245 247 247 248 247 247 248 250 251 253 255 257 260 263 262 262 263 267 269 272 275 277 279
205 203 200 191 187 188 193 200 204 212 218 220 224 227 230 240 250 253 259 255 256 253 256 255 253 251 252 254 255 256 256 258 262 264 264 265 266 267 270 272 274 276 279 281
211 207 198 194 196 203 205 210 217 225 229 234 238 241 246 252 259 260 261 262 260 259 260 260 259 258 258 258 259 259 261 263 265 266 267 268 269 271 273 274 277 279 281 283
222 215 212 212 215 218 222 227 235 239 242 247 252 251 255 259 263 264 264 264 263 261 262 264 264 263 263 262 263 264 264 265 267 269 271 272 273 274 275 277 279 281 282 283
229 226 224 226 229 232 236 241 244 247 250 254 257 256 256 257 260 264 266 267 265 265 266 268 268 267 266 266 267 267 267 269 271 273 274 275 276 278 279 280 281 282 283 284